User: anonymous   Login
Location: Newark
(54.3386°S, 169.8415°W)
Time: 16:17:07
(UTC+00:00)
Language:

Vanguard 3 - Orbit

View from above orbital plane
View from above orbital plane
View from above satellite
View from above satellite

Ground track
Ground track

The orbit data is extracted from the following two-line orbital elements,

1    20U 59007A   19293.18464645  .00000059  00000-0  31876-4 0  9998
2    20  33.3440 321.5628 1666252  66.9000 309.8244 11.55688927202722
Epoch (UTC): 20 October 2019 04:25:53
Eccentricity: 0.1666252
inclination: 33.3440°
perigee height: 508 km
apogee height: 3262 km
right ascension of ascending node: 321.5628°
argument of perigee: 66.9000°
revolutions per day: 11.55688927
mean anomaly at epoch: 309.8244°
orbit number at epoch: 20272

The dashed part of the orbit path shows where the satellite is in the earth's shadow,  

DLR